Time,TemperatureF,DewpointF,PressureIn,WindDirection,WindDirectionDegrees,WindSpeedMPH,WindSpeedGustMPH,Humidity,HourlyPrecipIn,Conditions,Clouds,dailyrainin,SoftwareType,DateUTC
2013-02-17 00:00:00,23.5,11.3,30.00,East,79,1.0,2.0,59,0.00,,,0.00,Wunderground v.1.15,2013-02-17 05:00:00,
2013-02-17 00:05:00,23.4,10.8,30.00,SSE,157,1.0,2.0,58,0.00,,,0.00,Wunderground v.1.15,2013-02-17 05:05:00,
2013-02-17 00:10:00,23.4,10.8,30.01,SW,217,1.0,1.0,58,0.00,,,0.00,Wunderground v.1.15,2013-02-17 05:10:00,
2013-02-17 00:15:00,23.3,11.1,30.00,ENE,69,1.0,1.0,59,0.00,,,0.00,Wunderground v.1.15,2013-02-17 05:15:00,
2013-02-17 00:20:00,23.1,11.3,30.01,SE,137,1.0,1.0,60,0.00,,,0.00,Wunderground v.1.15,2013-02-17 05:20:00,
2013-02-17 00:25:00,23.1,11.3,30.01,NNW,344,1.0,1.0,60,0.00,,,0.00,Wunderground v.1.15,2013-02-17 05:25:00,
2013-02-17 00:30:00,23.1,10.5,30.00,ESE,106,1.0,1.0,58,0.00,,,0.00,Wunderground v.1.15,2013-02-17 05:30:00,
2013-02-17 00:35:00,23.1,10.9,30.00,ESE,119,1.0,1.0,59,0.00,,,0.00,Wunderground v.1.15,2013-02-17 05:35:00,
2013-02-17 00:40:00,23.0,10.4,30.00,SW,227,1.0,2.0,58,0.00,,,0.00,Wunderground v.1.15,2013-02-17 05:40:00,
2013-02-17 00:45:00,23.0,10.0,30.00,East,94,2.0,2.0,57,0.00,,,0.00,Wunderground v.1.15,2013-02-17 05:45:00,
2013-02-17 00:50:00,23.0,10.4,30.01,SW,236,2.0,2.0,58,0.00,,,0.00,Wunderground v.1.15,2013-02-17 05:50:00,
2013-02-17 01:00:00,22.9,9.9,30.01,SSW,209,1.0,1.0,57,0.00,,,0.00,Wunderground v.1.15,2013-02-17 06:00:00,
2013-02-17 01:05:00,22.8,9.8,30.01,NNW,336,1.0,5.0,57,0.00,,,0.00,Wunderground v.1.15,2013-02-17 06:05:00,
2013-02-17 01:10:00,22.7,10.5,30.01,SSW,207,0.0,5.0,59,0.00,,,0.00,Wunderground v.1.15,2013-02-17 06:10:00,
2013-02-17 01:15:00,22.6,10.4,30.02,NW,321,1.0,5.0,59,0.00,,,0.00,Wunderground v.1.15,2013-02-17 06:15:00,
2013-02-17 01:20:00,22.5,9.5,30.02,ENE,57,1.0,1.0,57,0.00,,,0.00,Wunderground v.1.15,2013-02-17 06:20:00,
2013-02-17 01:30:00,22.4,9.8,30.02,SSE,161,0.0,5.0,58,0.00,,,0.00,Wunderground v.1.15,2013-02-17 06:30:00,
2013-02-17 01:35:00,22.3,9.4,30.02,SE,130,1.0,5.0,57,0.00,,,0.00,Wunderground v.1.15,2013-02-17 06:35:00,
2013-02-17 01:40:00,22.3,9.7,30.02,SE,130,1.0,5.0,58,0.00,,,0.00,Wunderground v.1.15,2013-02-17 06:40:00,
2013-02-17 01:45:00,22.2,10.0,30.02,ENE,58,1.0,5.0,59,0.00,,,0.00,Wunderground v.1.15,2013-02-17 06:45:00,
2013-02-17 01:50:00,22.1,9.6,30.02,West,259,1.0,1.0,58,0.00,,,0.00,Wunderground v.1.15,2013-02-17 06:50:00,
2013-02-17 01:55:00,22.0,8.7,30.02,East,84,2.0,2.0,56,0.00,,,0.00,Wunderground v.1.15,2013-02-17 06:55:00,
2013-02-17 02:05:00,21.9,9.0,30.03,NNE,22,1.0,5.0,57,0.00,,,0.00,Wunderground v.1.15,2013-02-17 07:05:00,
2013-02-17 02:10:00,21.8,9.3,30.03,NNW,338,0.0,5.0,58,0.00,,,0.00,Wunderground v.1.15,2013-02-17 07:10:00,
2013-02-17 02:15:00,21.7,8.8,30.03,WNW,282,1.0,5.0,57,0.00,,,0.00,Wunderground v.1.15,2013-02-17 07:15:00,
2013-02-17 02:20:00,21.7,9.2,30.02,SW,219,1.0,1.0,58,0.00,,,0.00,Wunderground v.1.15,2013-02-17 07:20:00,
2013-02-17 02:25:00,21.7,9.2,30.02,ESE,111,1.0,4.0,58,0.00,,,0.00,Wunderground v.1.15,2013-02-17 07:25:00,
2013-02-17 02:30:00,21.7,8.8,30.02,SE,143,1.0,1.0,57,0.00,,,0.00,Wunderground v.1.15,2013-02-17 07:30:00,
2013-02-17 02:35:00,21.7,8.4,30.02,NW,313,1.0,5.0,56,0.00,,,0.00,Wunderground v.1.15,2013-02-17 07:35:00,
2013-02-17 02:40:00,21.7,9.6,30.02,SSW,201,1.0,5.0,59,0.00,,,0.00,Wunderground v.1.15,2013-02-17 07:40:00,
2013-02-17 02:45:00,21.7,9.6,30.02,East,80,1.0,5.0,59,0.00,,,0.00,Wunderground v.1.15,2013-02-17 07:45:00,
2013-02-17 02:50:00,21.6,9.5,30.03,SSE,157,1.0,5.0,59,0.00,,,0.00,Wunderground v.1.15,2013-02-17 07:50:00,
2013-02-17 03:00:00,21.7,9.6,30.03,SSE,163,1.0,9.0,59,0.00,,,0.00,Wunderground v.1.15,2013-02-17 08:00:00,
2013-02-17 03:10:00,21.8,8.9,30.03,SW,219,2.0,2.0,57,0.00,,,0.00,Wunderground v.1.15,2013-02-17 08:10:00,
2013-02-17 03:15:00,21.8,9.3,30.03,East,84,2.0,2.0,58,0.00,,,0.00,Wunderground v.1.15,2013-02-17 08:15:00,
2013-02-17 03:20:00,21.7,8.8,30.03,North,9,1.0,1.0,57,0.00,,,0.00,Wunderground v.1.15,2013-02-17 08:20:00,
2013-02-17 03:25:00,21.7,8.8,30.03,SW,228,1.0,4.0,57,0.00,,,0.00,Wunderground v.1.15,2013-02-17 08:25:00,
2013-02-17 03:30:00,21.6,8.7,30.04,NW,323,2.0,2.0,57,0.00,,,0.00,Wunderground v.1.15,2013-02-17 08:30:00,
2013-02-17 03:35:00,21.6,9.1,30.04,SW,229,2.0,2.0,58,0.00,,,0.00,Wunderground v.1.15,2013-02-17 08:35:00,
2013-02-17 03:40:00,21.5,9.0,30.04,SW,224,1.0,1.0,58,0.00,,,0.00,Wunderground v.1.15,2013-02-17 08:40:00,
2013-02-17 03:45:00,21.5,8.6,30.04,SSW,205,1.0,1.0,57,0.00,,,0.00,Wunderground v.1.15,2013-02-17 08:45:00,
2013-02-17 03:50:00,21.4,9.3,30.04,SE,130,1.0,1.0,59,0.00,,,0.00,Wunderground v.1.15,2013-02-17 08:50:00,
2013-02-17 03:55:00,21.4,9.7,30.05,SSE,160,1.0,4.0,60,0.00,,,0.00,Wunderground v.1.15,2013-02-17 08:55:00,
2013-02-17 04:05:00,21.3,9.9,30.06,WNW,297,1.0,8.0,61,0.00,,,0.00,Wunderground v.1.15,2013-02-17 09:05:00,
2013-02-17 04:10:00,21.4,10.0,30.06,NW,311,1.0,8.0,61,0.00,,,0.00,Wunderground v.1.15,2013-02-17 09:10:00,
2013-02-17 04:15:00,21.4,9.3,30.06,NNW,331,0.0,8.0,59,0.00,,,0.00,Wunderground v.1.15,2013-02-17 09:15:00,
2013-02-17 04:20:00,21.4,10.0,30.05,WNW,294,0.0,8.0,61,0.00,,,0.00,Wunderground v.1.15,2013-02-17 09:20:00,
2013-02-17 04:25:00,21.4,9.7,30.05,West,269,0.0,8.0,60,0.00,,,0.00,Wunderground v.1.15,2013-02-17 09:25:00,
2013-02-17 04:30:00,21.3,9.6,30.06,SE,130,1.0,8.0,60,0.00,,,0.00,Wunderground v.1.15,2013-02-17 09:30:00,
2013-02-17 04:40:00,21.3,9.6,30.06,NE,40,0.0,8.0,60,0.00,,,0.00,Wunderground v.1.15,2013-02-17 09:40:00,
2013-02-17 04:45:00,21.3,9.2,30.06,South,188,1.0,8.0,59,0.00,,,0.00,Wunderground v.1.15,2013-02-17 09:45:00,
2013-02-17 04:50:00,21.2,9.5,30.06,North,5,1.0,1.0,60,0.00,,,0.00,Wunderground v.1.15,2013-02-17 09:50:00,
2013-02-17 04:55:00,21.1,10.1,30.06,South,189,1.0,8.0,62,0.00,,,0.00,Wunderground v.1.15,2013-02-17 09:55:00,
2013-02-17 05:00:00,21.0,10.0,30.06,SW,227,0.0,8.0,62,0.00,,,0.00,Wunderground v.1.15,2013-02-17 10:00:00,
2013-02-17 05:05:00,20.9,9.2,30.06,ESE,111,1.0,8.0,60,0.00,,,0.00,Wunderground v.1.15,2013-02-17 10:05:00,
2013-02-17 05:15:00,20.8,9.8,30.06,NNW,348,1.0,8.0,62,0.00,,,0.00,Wunderground v.1.15,2013-02-17 10:15:00,
2013-02-17 05:20:00,20.7,8.6,30.06,SSW,202,1.0,8.0,59,0.00,,,0.00,Wunderground v.1.15,2013-02-17 10:20:00,
2013-02-17 05:25:00,20.7,9.0,30.06,East,100,1.0,8.0,60,0.00,,,0.00,Wunderground v.1.15,2013-02-17 10:25:00,
2013-02-17 05:30:00,20.7,9.0,30.07,North,355,1.0,1.0,60,0.00,,,0.00,Wunderground v.1.15,2013-02-17 10:30:00,
2013-02-17 05:35:00,20.7,9.0,30.08,SSE,156,1.0,8.0,60,0.00,,,0.00,Wunderground v.1.15,2013-02-17 10:35:00,
2013-02-17 05:40:00,20.6,8.5,30.08,SSE,151,1.0,8.0,59,0.00,,,0.00,Wunderground v.1.15,2013-02-17 10:40:00,
2013-02-17 05:50:00,20.7,8.2,30.08,ENE,72,1.0,8.0,58,0.00,,,0.00,Wunderground v.1.15,2013-02-17 10:50:00,
2013-02-17 05:55:00,20.7,8.2,30.08,SSW,213,1.0,8.0,58,0.00,,,0.00,Wunderground v.1.15,2013-02-17 10:55:00,
2013-02-17 06:00:00,20.7,9.0,30.08,East,84,1.0,3.0,60,0.00,,,0.00,Wunderground v.1.15,2013-02-17 11:00:00,
2013-02-17 06:10:00,20.7,8.2,30.09,SSW,201,2.0,2.0,58,0.00,,,0.00,Wunderground v.1.15,2013-02-17 11:10:00,
2013-02-17 06:20:00,20.7,8.2,30.09,SE,126,1.0,2.0,58,0.00,,,0.00,Wunderground v.1.15,2013-02-17 11:20:00,
2013-02-17 06:25:00,20.8,7.9,30.09,West,265,1.0,2.0,57,0.00,,,0.00,Wunderground v.1.15,2013-02-17 11:25:00,
2013-02-17 06:30:00,20.8,8.7,30.09,ESE,118,0.0,2.0,59,0.00,,,0.00,Wunderground v.1.15,2013-02-17 11:30:00,
2013-02-17 06:35:00,20.9,8.8,30.09,ENE,61,1.0,2.0,59,0.00,,,0.00,Wunderground v.1.15,2013-02-17 11:35:00,
2013-02-17 06:40:00,20.9,9.2,30.10,WSW,241,1.0,1.0,60,0.00,,,0.00,Wunderground v.1.15,2013-02-17 11:40:00,
2013-02-17 06:45:00,21.0,9.3,30.10,South,190,0.0,1.0,60,0.00,,,0.00,Wunderground v.1.15,2013-02-17 11:45:00,
2013-02-17 06:55:00,21.2,9.5,30.10,NNE,32,1.0,1.0,60,0.00,,,0.00,Wunderground v.1.15,2013-02-17 11:55:00,
2013-02-17 07:00:00,21.2,9.1,30.10,WNW,296,2.0,2.0,59,0.00,,,0.00,Wunderground v.1.15,2013-02-17 12:00:00,
2013-02-17 07:05:00,21.3,9.2,30.10,ENE,59,1.0,4.0,59,0.00,,,0.00,Wunderground v.1.15,2013-02-17 12:05:00,
2013-02-17 07:10:00,21.3,9.2,30.10,NE,35,1.0,1.0,59,0.00,,,0.00,Wunderground v.1.15,2013-02-17 12:10:00,
2013-02-17 07:15:00,21.3,9.2,30.11,North,360,1.0,3.0,59,0.00,,,0.00,Wunderground v.1.15,2013-02-17 12:15:00,
2013-02-17 07:25:00,21.3,9.9,30.11,WSW,238,2.0,2.0,61,0.00,,,0.00,Wunderground v.1.15,2013-02-17 12:25:00,
2013-02-17 07:30:00,21.4,10.0,30.11,ENE,66,1.0,4.0,61,0.00,,,0.00,Wunderground v.1.15,2013-02-17 12:30:00,
2013-02-17 07:35:00,21.5,9.7,30.11,NW,321,1.0,4.0,60,0.00,,,0.00,Wunderground v.1.15,2013-02-17 12:35:00,
2013-02-17 07:40:00,21.6,10.2,30.11,West,276,1.0,4.0,61,0.00,,,0.00,Wunderground v.1.15,2013-02-17 12:40:00,
2013-02-17 07:45:00,21.6,10.2,30.11,NW,317,1.0,4.0,61,0.00,,,0.00,Wunderground v.1.15,2013-02-17 12:45:00,
2013-02-17 07:50:00,21.6,9.8,30.11,South,181,1.0,1.0,60,0.00,,,0.00,Wunderground v.1.15,2013-02-17 12:50:00,
2013-02-17 07:55:00,21.7,9.9,30.11,West,265,1.0,4.0,60,0.00,,,0.00,Wunderground v.1.15,2013-02-17 12:55:00,
2013-02-17 08:05:00,21.9,10.5,30.12,ENE,67,1.0,4.0,61,0.00,,,0.00,Wunderground v.1.15,2013-02-17 13:05:00,
2013-02-17 08:10:00,22.0,10.6,30.12,ENE,65,1.0,4.0,61,0.00,,,0.00,Wunderground v.1.15,2013-02-17 13:10:00,
2013-02-17 08:15:00,22.2,10.0,30.12,ESE,118,1.0,4.0,59,0.00,,,0.00,Wunderground v.1.15,2013-02-17 13:15:00,
2013-02-17 08:20:00,22.4,11.0,30.13,SSW,212,1.0,1.0,61,0.00,,,0.00,Wunderground v.1.15,2013-02-17 13:20:00,
2013-02-17 08:25:00,22.5,10.7,30.13,NW,325,1.0,4.0,60,0.00,,,0.00,Wunderground v.1.15,2013-02-17 13:25:00,
2013-02-17 08:30:00,22.8,10.6,30.13,SSE,149,1.0,4.0,59,0.00,,,0.00,Wunderground v.1.15,2013-02-17 13:30:00,
2013-02-17 08:35:00,23.0,10.4,30.14,East,101,2.0,4.0,58,0.00,,,0.00,Wunderground v.1.15,2013-02-17 13:35:00,
2013-02-17 08:40:00,23.1,10.9,30.14,ESE,119,1.0,4.0,59,0.00,,,0.00,Wunderground v.1.15,2013-02-17 13:40:00,
2013-02-17 08:45:00,23.3,10.7,30.14,West,267,1.0,4.0,58,0.00,,,0.00,Wunderground v.1.15,2013-02-17 13:45:00,
2013-02-17 08:50:00,23.5,10.9,30.14,WSW,239,1.0,1.0,58,0.00,,,0.00,Wunderground v.1.15,2013-02-17 13:50:00,
2013-02-17 09:00:00,23.9,10.9,30.15,SSW,205,1.0,2.0,57,0.00,,,0.00,Wunderground v.1.15,2013-02-17 14:00:00,
2013-02-17 09:10:00,24.1,10.6,30.15,ENE,78,2.0,2.0,56,0.00,,,0.00,Wunderground v.1.15,2013-02-17 14:10:00,
2013-02-17 09:15:00,24.2,10.7,30.16,ESE,117,2.0,8.0,56,0.00,,,0.00,Wunderground v.1.15,2013-02-17 14:15:00,
2013-02-17 09:20:00,24.2,11.1,30.16,NNW,344,2.0,3.0,57,0.00,,,0.00,Wunderground v.1.15,2013-02-17 14:20:00,
2013-02-17 09:25:00,24.4,10.9,30.16,SE,137,2.0,3.0,56,0.00,,,0.00,Wunderground v.1.15,2013-02-17 14:25:00,
2013-02-17 09:35:00,24.9,11.0,30.17,ENE,78,2.0,15.0,55,0.00,,,0.00,Wunderground v.1.15,2013-02-17 14:35:00,
2013-02-17 09:40:00,25.0,11.1,30.17,East,90,3.0,6.0,55,0.00,,,0.00,Wunderground v.1.15,2013-02-17 14:40:00,
2013-02-17 09:45:00,25.0,11.1,30.16,SE,132,3.0,6.0,55,0.00,,,0.00,Wunderground v.1.15,2013-02-17 14:45:00,
2013-02-17 09:50:00,25.2,11.3,30.16,East,89,2.0,5.0,55,0.00,,,0.00,Wunderground v.1.15,2013-02-17 14:50:00,
2013-02-17 09:55:00,25.3,11.0,30.16,WSW,240,2.0,5.0,54,0.00,,,0.00,Wunderground v.1.15,2013-02-17 14:55:00,
2013-02-17 10:05:00,25.7,11.7,30.16,WSW,240,2.0,5.0,55,0.00,,,0.00,Wunderground v.1.15,2013-02-17 15:05:00,
2013-02-17 10:10:00,26.0,10.8,30.17,West,261,2.0,5.0,52,0.00,,,0.00,Wunderground v.1.15,2013-02-17 15:10:00,
2013-02-17 10:15:00,26.0,10.3,30.17,WNW,303,2.0,6.0,51,0.00,,,0.00,Wunderground v.1.15,2013-02-17 15:15:00,
2013-02-17 10:20:00,26.0,10.3,30.16,WSW,238,3.0,5.0,51,0.00,,,0.00,Wunderground v.1.15,2013-02-17 15:20:00,
2013-02-17 10:25:00,26.3,10.6,30.17,WNW,296,3.0,5.0,51,0.00,,,0.00,Wunderground v.1.15,2013-02-17 15:25:00,
2013-02-17 10:30:00,26.5,11.2,30.17,ESE,107,3.0,5.0,52,0.00,,,0.00,Wunderground v.1.15,2013-02-17 15:30:00,
2013-02-17 10:40:00,27.1,10.9,30.16,North,349,2.0,5.0,50,0.00,,,0.00,Wunderground v.1.15,2013-02-17 15:40:00,
2013-02-17 10:45:00,27.1,10.4,30.17,NNW,330,3.0,5.0,49,0.00,,,0.00,Wunderground v.1.15,2013-02-17 15:45:00,
2013-02-17 10:50:00,27.2,11.4,30.17,North,349,3.0,5.0,51,0.00,,,0.00,Wunderground v.1.15,2013-02-17 15:50:00,
2013-02-17 10:55:00,27.3,11.1,30.17,North,355,3.0,5.0,50,0.00,,,0.00,Wunderground v.1.15,2013-02-17 15:55:00,
2013-02-17 11:00:00,27.7,11.5,30.17,NNE,15,3.0,3.0,50,0.00,,,0.00,Wunderground v.1.15,2013-02-17 16:00:00,
2013-02-17 11:10:00,28.4,11.6,30.16,East,90,2.0,5.0,49,0.00,,,0.00,Wunderground v.1.15,2013-02-17 16:10:00,
2013-02-17 11:15:00,28.8,11.6,30.17,NW,304,2.0,5.0,48,0.00,,,0.00,Wunderground v.1.15,2013-02-17 16:15:00,
2013-02-17 11:20:00,28.8,12.0,30.17,NNW,346,2.0,2.0,49,0.00,,,0.00,Wunderground v.1.15,2013-02-17 16:20:00,
2013-02-17 11:25:00,28.8,11.1,30.17,WNW,297,2.0,5.0,47,0.00,,,0.00,Wunderground v.1.15,2013-02-17 16:25:00,
2013-02-17 11:30:00,29.0,11.7,30.17,NNE,15,1.0,5.0,48,0.00,,,0.00,Wunderground v.1.15,2013-02-17 16:30:00,
2013-02-17 11:35:00,29.1,10.9,30.17,SSE,151,2.0,5.0,46,0.00,,,0.00,Wunderground v.1.15,2013-02-17 16:35:00,
2013-02-17 11:40:00,29.0,10.8,30.17,West,277,2.0,2.0,46,0.00,,,0.00,Wunderground v.1.15,2013-02-17 16:40:00,
2013-02-17 11:45:00,29.2,11.0,30.17,NNW,336,2.0,3.0,46,0.00,,,0.00,Wunderground v.1.15,2013-02-17 16:45:00,
2013-02-17 11:50:00,29.3,11.1,30.17,NNE,16,2.0,2.0,46,0.00,,,0.00,Wunderground v.1.15,2013-02-17 16:50:00,
2013-02-17 11:55:00,29.6,10.8,30.17,North,5,2.0,5.0,45,0.00,,,0.00,Wunderground v.1.15,2013-02-17 16:55:00,
2013-02-17 12:00:00,29.9,10.6,30.17,NE,40,3.0,3.0,44,0.00,,,0.00,Wunderground v.1.15,2013-02-17 17:00:00,
2013-02-17 12:10:00,30.5,11.1,30.16,NNW,346,2.0,2.0,44,0.00,,,0.00,Wunderground v.1.15,2013-02-17 17:10:00,
2013-02-17 12:15:00,30.8,11.4,30.16,NW,311,2.0,2.0,44,0.00,,,0.00,Wunderground v.1.15,2013-02-17 17:15:00,
2013-02-17 12:20:00,31.1,11.7,30.17,SSW,211,2.0,2.0,44,0.00,,,0.00,Wunderground v.1.15,2013-02-17 17:20:00,
2013-02-17 12:25:00,31.3,11.4,30.16,South,190,1.0,2.0,43,0.00,,,0.00,Wunderground v.1.15,2013-02-17 17:25:00,
2013-02-17 12:30:00,31.5,11.5,30.16,WSW,256,2.0,2.0,43,0.00,,,0.00,Wunderground v.1.15,2013-02-17 17:30:00,
2013-02-17 12:40:00,31.8,11.3,30.16,NW,314,2.0,2.0,42,0.00,,,0.00,Wunderground v.1.15,2013-02-17 17:40:00,
2013-02-17 12:45:00,31.8,10.2,30.16,NNE,27,2.0,2.0,40,0.00,,,0.00,Wunderground v.1.15,2013-02-17 17:45:00,
2013-02-17 12:50:00,31.9,10.8,30.15,WSW,243,2.0,3.0,41,0.00,,,0.00,Wunderground v.1.15,2013-02-17 17:50:00,
2013-02-17 12:55:00,32.5,11.9,30.15,WSW,245,2.0,4.0,42,0.00,,,0.00,Wunderground v.1.15,2013-02-17 17:55:00,
2013-02-17 13:00:00,32.9,10.6,30.16,NE,55,2.0,2.0,39,0.00,,,0.00,Wunderground v.1.15,2013-02-17 18:00:00,
2013-02-17 13:05:00,32.9,11.2,30.16,South,189,1.0,3.0,40,0.00,,,0.00,Wunderground v.1.15,2013-02-17 18:05:00,
2013-02-17 13:10:00,33.0,10.7,30.16,ENE,59,2.0,13.0,39,0.00,,,0.00,Wunderground v.1.15,2013-02-17 18:10:00,
2013-02-17 13:20:00,33.1,10.8,30.15,ESE,103,2.0,13.0,39,0.00,,,0.00,Wunderground v.1.15,2013-02-17 18:20:00,
2013-02-17 13:25:00,32.9,10.0,30.15,NNW,347,3.0,13.0,38,0.00,,,0.00,Wunderground v.1.15,2013-02-17 18:25:00,
2013-02-17 13:30:00,33.1,10.2,30.15,WNW,302,4.0,4.0,38,0.00,,,0.00,Wunderground v.1.15,2013-02-17 18:30:00,
2013-02-17 13:35:00,33.5,11.7,30.14,NNW,327,2.0,13.0,40,0.00,,,0.00,Wunderground v.1.15,2013-02-17 18:35:00,
2013-02-17 13:40:00,34.2,11.2,30.14,West,262,2.0,13.0,38,0.00,,,0.00,Wunderground v.1.15,2013-02-17 18:40:00,
2013-02-17 13:45:00,34.6,10.3,30.14,SSE,150,2.0,13.0,36,0.00,,,0.00,Wunderground v.1.15,2013-02-17 18:45:00,
2013-02-17 13:55:00,35.1,12.6,30.14,SW,219,2.0,13.0,39,0.00,,,0.00,Wunderground v.1.15,2013-02-17 18:55:00,
2013-02-17 14:00:00,34.8,9.2,30.14,North,355,2.0,2.0,34,0.00,,,0.00,Wunderground v.1.15,2013-02-17 19:00:00,
2013-02-17 14:05:00,35.0,11.3,30.14,NE,52,2.0,3.0,37,0.00,,,0.00,Wunderground v.1.15,2013-02-17 19:05:00,
2013-02-17 14:10:00,35.1,10.8,30.14,ENE,78,2.0,2.0,36,0.00,,,0.00,Wunderground v.1.15,2013-02-17 19:10:00,
2013-02-17 14:15:00,35.1,10.2,30.14,North,360,2.0,13.0,35,0.00,,,0.00,Wunderground v.1.15,2013-02-17 19:15:00,
2013-02-17 14:25:00,34.7,9.8,30.15,North,355,3.0,13.0,35,0.00,,,0.00,Wunderground v.1.15,2013-02-17 19:25:00,
2013-02-17 14:30:00,34.7,11.0,30.15,ESE,111,3.0,3.0,37,0.00,,,0.00,Wunderground v.1.15,2013-02-17 19:30:00,
2013-02-17 14:35:00,34.9,11.2,30.15,NW,307,3.0,13.0,37,0.00,,,0.00,Wunderground v.1.15,2013-02-17 19:35:00,
2013-02-17 14:40:00,35.5,12.4,30.15,West,263,2.0,2.0,38,0.00,,,0.00,Wunderground v.1.15,2013-02-17 19:40:00,
2013-02-17 14:45:00,36.0,11.6,30.14,WSW,250,2.0,13.0,36,0.00,,,0.00,Wunderground v.1.15,2013-02-17 19:45:00,
2013-02-17 14:50:00,36.2,12.4,30.15,South,176,2.0,2.0,37,0.00,,,0.00,Wunderground v.1.15,2013-02-17 19:50:00,
2013-02-17 15:00:00,36.2,11.1,30.15,North,10,1.0,2.0,35,0.00,,,0.00,Wunderground v.1.15,2013-02-17 20:00:00,
2013-02-17 15:10:00,35.4,9.8,30.15,ENE,63,3.0,3.0,34,0.00,,,0.00,Wunderground v.1.15,2013-02-17 20:10:00,
2013-02-17 15:15:00,35.6,11.2,30.15,East,98,1.0,3.0,36,0.00,,,0.00,Wunderground v.1.15,2013-02-17 20:15:00,
2013-02-17 15:20:00,36.1,11.7,30.15,SSW,208,1.0,2.0,36,0.00,,,0.00,Wunderground v.1.15,2013-02-17 20:20:00,
2013-02-17 15:25:00,36.5,11.4,30.16,WSW,258,1.0,2.0,35,0.00,,,0.00,Wunderground v.1.15,2013-02-17 20:25:00,
2013-02-17 15:30:00,36.5,10.7,30.16,West,273,2.0,2.0,34,0.00,,,0.00,Wunderground v.1.15,2013-02-17 20:30:00,
2013-02-17 15:35:00,36.5,10.7,30.16,ESE,106,2.0,2.0,34,0.00,,,0.00,Wunderground v.1.15,2013-02-17 20:35:00,
2013-02-17 15:40:00,36.4,11.3,30.16,WSW,240,2.0,2.0,35,0.00,,,0.00,Wunderground v.1.15,2013-02-17 20:40:00,
2013-02-17 15:45:00,36.8,9.7,30.16,WSW,244,2.0,2.0,32,0.00,,,0.00,Wunderground v.1.15,2013-02-17 20:45:00,
2013-02-17 15:50:00,36.8,10.3,30.16,WSW,254,2.0,2.0,33,0.00,,,0.00,Wunderground v.1.15,2013-02-17 20:50:00,
2013-02-17 15:55:00,36.6,10.2,30.16,WNW,288,1.0,2.0,33,0.00,,,0.00,Wunderground v.1.15,2013-02-17 20:55:00,
2013-02-17 16:05:00,36.1,9.7,30.16,SSW,208,2.0,7.0,33,0.00,,,0.00,Wunderground v.1.15,2013-02-17 21:05:00,
2013-02-17 16:10:00,36.0,9.6,30.16,NNW,329,1.0,7.0,33,0.00,,,0.00,Wunderground v.1.15,2013-02-17 21:10:00,
2013-02-17 16:15:00,35.8,8.8,30.16,SW,219,2.0,7.0,32,0.00,,,0.00,Wunderground v.1.15,2013-02-17 21:15:00,
2013-02-17 16:20:00,35.7,10.0,30.16,WNW,300,2.0,2.0,34,0.00,,,0.00,Wunderground v.1.15,2013-02-17 21:20:00,
2013-02-17 16:25:00,35.6,9.3,30.16,West,261,2.0,7.0,33,0.00,,,0.00,Wunderground v.1.15,2013-02-17 21:25:00,
2013-02-17 16:35:00,35.3,9.0,30.17,West,263,2.0,7.0,33,0.00,,,0.00,Wunderground v.1.15,2013-02-17 21:35:00,
2013-02-17 16:40:00,35.3,9.0,30.17,West,266,1.0,7.0,33,0.00,,,0.00,Wunderground v.1.15,2013-02-17 21:40:00,
2013-02-17 16:45:00,35.3,9.0,30.17,North,355,1.0,7.0,33,0.00,,,0.00,Wunderground v.1.15,2013-02-17 21:45:00,
2013-02-17 16:50:00,35.2,9.6,30.17,SSW,193,1.0,7.0,34,0.00,,,0.00,Wunderground v.1.15,2013-02-17 21:50:00,
2013-02-17 16:55:00,35.0,10.1,30.17,SW,232,1.0,7.0,35,0.00,,,0.00,Wunderground v.1.15,2013-02-17 21:55:00,
2013-02-17 17:00:00,34.9,9.3,30.17,SW,224,1.0,1.0,34,0.00,,,0.00,Wunderground v.1.15,2013-02-17 22:00:00,
2013-02-17 17:10:00,34.6,9.7,30.18,ESE,103,1.0,7.0,35,0.00,,,0.00,Wunderground v.1.15,2013-02-17 22:10:00,
2013-02-17 17:15:00,34.3,9.4,30.18,ESE,121,1.0,7.0,35,0.00,,,0.00,Wunderground v.1.15,2013-02-17 22:15:00,
2013-02-17 17:20:00,34.1,9.3,30.18,ESE,121,1.0,1.0,35,0.00,,,0.00,Wunderground v.1.15,2013-02-17 22:20:00,
2013-02-17 17:25:00,34.0,9.8,30.18,SE,139,0.0,7.0,36,0.00,,,0.00,Wunderground v.1.15,2013-02-17 22:25:00,
2013-02-17 17:30:00,33.9,9.7,30.18,SW,229,0.0,7.0,36,0.00,,,0.00,Wunderground v.1.15,2013-02-17 22:30:00,
2013-02-17 17:40:00,33.7,8.9,30.19,SE,143,0.0,7.0,35,0.00,,,0.00,Wunderground v.1.15,2013-02-17 22:40:00,
2013-02-17 17:45:00,33.5,8.7,30.19,SSE,153,1.0,7.0,35,0.00,,,0.00,Wunderground v.1.15,2013-02-17 22:45:00,
2013-02-17 17:50:00,33.3,9.8,30.19,SSE,153,0.0,7.0,37,0.00,,,0.00,Wunderground v.1.15,2013-02-17 22:50:00,
2013-02-17 17:55:00,33.1,9.6,30.19,SE,144,0.0,7.0,37,0.00,,,0.00,Wunderground v.1.15,2013-02-17 22:55:00,
2013-02-17 18:00:00,32.9,10.6,30.20,SSE,150,0.0,0.0,39,0.00,,,0.00,Wunderground v.1.15,2013-02-17 23:00:00,
2013-02-17 18:10:00,32.4,10.2,30.20,SSE,160,0.0,0.0,39,0.00,,,0.00,Wunderground v.1.15,2013-02-17 23:10:00,
2013-02-17 18:15:00,32.1,9.3,30.20,SSE,160,0.0,0.0,38,0.00,,,0.00,Wunderground v.1.15,2013-02-17 23:15:00,
2013-02-17 18:20:00,31.9,10.3,30.21,NE,46,0.0,0.0,40,0.00,,,0.00,Wunderground v.1.15,2013-02-17 23:20:00,
2013-02-17 18:25:00,31.7,10.1,30.21,NE,46,0.0,0.0,40,0.00,,,0.00,Wunderground v.1.15,2013-02-17 23:25:00,
2013-02-17 18:30:00,31.3,10.3,30.21,NE,46,0.0,0.0,41,0.00,,,0.00,Wunderground v.1.15,2013-02-17 23:30:00,
2013-02-17 18:35:00,31.0,10.6,30.22,NE,46,0.0,0.0,42,0.00,,,0.00,Wunderground v.1.15,2013-02-17 23:35:00,
2013-02-17 18:45:00,30.4,10.5,30.22,NE,46,0.0,0.0,43,0.00,,,0.00,Wunderground v.1.15,2013-02-17 23:45:00,
2013-02-17 18:50:00,30.2,10.4,30.22,NE,46,0.0,0.0,43,0.00,,,0.00,Wunderground v.1.15,2013-02-17 23:50:00,
2013-02-17 18:55:00,30.0,10.7,30.22,NE,46,0.0,0.0,44,0.00,,,0.00,Wunderground v.1.15,2013-02-17 23:55:00,
2013-02-17 19:00:00,29.9,10.6,30.23,NE,46,0.0,4.0,44,0.00,,,0.00,Wunderground v.1.15,2013-02-18 00:00:00,
2013-02-17 19:05:00,29.8,11.0,30.22,NE,46,0.0,4.0,45,0.00,,,0.00,Wunderground v.1.15,2013-02-18 00:05:00,
2013-02-17 19:10:00,29.7,11.4,30.22,NE,46,0.0,4.0,46,0.00,,,0.00,Wunderground v.1.15,2013-02-18 00:10:00,
2013-02-17 19:15:00,29.7,10.9,30.22,NE,46,0.0,4.0,45,0.00,,,0.00,Wunderground v.1.15,2013-02-18 00:15:00,
2013-02-17 19:20:00,29.8,12.0,30.22,NNE,14,0.0,4.0,47,0.00,,,0.00,Wunderground v.1.15,2013-02-18 00:20:00,
2013-02-17 19:25:00,29.8,10.5,30.23,NNW,347,0.0,4.0,44,0.00,,,0.00,Wunderground v.1.15,2013-02-18 00:25:00,
2013-02-17 19:30:00,29.8,10.5,30.23,NNW,346,0.0,4.0,44,0.00,,,0.00,Wunderground v.1.15,2013-02-18 00:30:00,
2013-02-17 19:35:00,29.8,11.5,30.23,NNW,346,0.0,4.0,46,0.00,,,0.00,Wunderground v.1.15,2013-02-18 00:35:00,
2013-02-17 19:40:00,29.7,11.9,30.23,NNW,346,0.0,4.0,47,0.00,,,0.00,Wunderground v.1.15,2013-02-18 00:40:00,
2013-02-17 19:50:00,29.4,12.1,30.24,NNW,346,0.0,4.0,48,0.00,,,0.00,Wunderground v.1.15,2013-02-18 00:50:00,
2013-02-17 19:55:00,29.2,12.4,30.24,NNW,346,0.0,4.0,49,0.00,,,0.00,Wunderground v.1.15,2013-02-18 00:55:00,
2013-02-17 20:00:00,29.0,12.2,30.24,NNW,346,0.0,4.0,49,0.00,,,0.00,Wunderground v.1.15,2013-02-18 01:00:00,
2013-02-17 20:05:00,28.8,11.6,30.24,NNW,346,0.0,4.0,48,0.00,,,0.00,Wunderground v.1.15,2013-02-18 01:05:00,
2013-02-17 20:10:00,28.8,12.5,30.24,NNW,346,0.0,4.0,50,0.00,,,0.00,Wunderground v.1.15,2013-02-18 01:10:00,
2013-02-17 20:20:00,28.4,12.6,30.24,NNW,346,0.0,4.0,51,0.00,,,0.00,Wunderground v.1.15,2013-02-18 01:20:00,
2013-02-17 20:25:00,28.2,12.8,30.24,NNW,346,0.0,4.0,52,0.00,,,0.00,Wunderground v.1.15,2013-02-18 01:25:00,
2013-02-17 20:30:00,28.1,13.1,30.24,NNW,346,0.0,4.0,53,0.00,,,0.00,Wunderground v.1.15,2013-02-18 01:30:00,
2013-02-17 20:35:00,27.9,13.4,30.24,NNW,346,0.0,4.0,54,0.00,,,0.00,Wunderground v.1.15,2013-02-18 01:35:00,
2013-02-17 20:40:00,27.7,13.6,30.25,NNW,346,0.0,4.0,55,0.00,,,0.00,Wunderground v.1.15,2013-02-18 01:40:00,
2013-02-17 20:45:00,27.5,13.0,30.25,NNW,346,0.0,4.0,54,0.00,,,0.00,Wunderground v.1.15,2013-02-18 01:45:00,
2013-02-17 20:55:00,27.1,12.2,30.24,NNW,346,0.0,4.0,53,0.00,,,0.00,Wunderground v.1.15,2013-02-18 01:55:00,
2013-02-17 21:00:00,26.9,12.0,30.24,NNW,346,0.0,0.0,53,0.00,,,0.00,Wunderground v.1.15,2013-02-18 02:00:00,
2013-02-17 21:10:00,26.6,11.7,30.25,NNW,346,0.0,0.0,53,0.00,,,0.00,Wunderground v.1.15,2013-02-18 02:10:00,
2013-02-17 21:15:00,26.5,12.5,30.25,NNW,346,0.0,0.0,55,0.00,,,0.00,Wunderground v.1.15,2013-02-18 02:15:00,
2013-02-17 21:25:00,26.3,12.3,30.25,NNW,346,0.0,0.0,55,0.00,,,0.00,Wunderground v.1.15,2013-02-18 02:25:00,
2013-02-17 21:30:00,26.1,12.1,30.25,NNW,346,0.0,0.0,55,0.00,,,0.00,Wunderground v.1.15,2013-02-18 02:30:00,
2013-02-17 21:35:00,26.0,12.8,30.26,NNW,346,0.0,0.0,57,0.00,,,0.00,Wunderground v.1.15,2013-02-18 02:35:00,
2013-02-17 21:40:00,25.8,12.2,30.25,NNW,346,0.0,0.0,56,0.00,,,0.00,Wunderground v.1.15,2013-02-18 02:40:00,
2013-02-17 21:45:00,25.8,13.0,30.26,NNW,346,0.0,0.0,58,0.00,,,0.00,Wunderground v.1.15,2013-02-18 02:45:00,
2013-02-17 21:50:00,25.7,14.5,30.26,NNW,346,0.0,0.0,62,0.00,,,0.00,Wunderground v.1.15,2013-02-18 02:50:00,
2013-02-17 22:00:00,25.4,15.6,30.26,NNW,346,0.0,0.0,66,0.00,,,0.00,Wunderground v.1.15,2013-02-18 03:00:00,
2013-02-17 22:05:00,25.2,14.7,30.26,NNW,346,0.0,0.0,64,0.00,,,0.00,Wunderground v.1.15,2013-02-18 03:05:00,
2013-02-17 22:10:00,25.0,14.5,30.26,NNW,346,0.0,0.0,64,0.00,,,0.00,Wunderground v.1.15,2013-02-18 03:10:00,
2013-02-17 22:15:00,24.9,14.8,30.27,NNW,346,0.0,0.0,65,0.00,,,0.00,Wunderground v.1.15,2013-02-18 03:15:00,
2013-02-17 22:20:00,24.7,14.6,30.27,NNW,346,0.0,0.0,65,0.00,,,0.00,Wunderground v.1.15,2013-02-18 03:20:00,
2013-02-17 22:30:00,24.5,14.1,30.27,NNW,346,0.0,0.0,64,0.00,,,0.00,Wunderground v.1.15,2013-02-18 03:30:00,
2013-02-17 22:35:00,24.4,13.2,30.27,NNW,346,0.0,0.0,62,0.00,,,0.00,Wunderground v.1.15,2013-02-18 03:35:00,
2013-02-17 22:40:00,24.2,13.0,30.27,NNW,346,0.0,0.0,62,0.00,,,0.00,Wunderground v.1.15,2013-02-18 03:40:00,
2013-02-17 22:45:00,24.1,13.7,30.27,NNW,346,0.0,0.0,64,0.00,,,0.00,Wunderground v.1.15,2013-02-18 03:45:00,
2013-02-17 22:50:00,24.0,13.6,30.27,NNW,346,0.0,0.0,64,0.00,,,0.00,Wunderground v.1.15,2013-02-18 03:50:00,
2013-02-17 22:55:00,23.9,13.8,30.26,NNW,346,0.0,0.0,65,0.00,,,0.00,Wunderground v.1.15,2013-02-18 03:55:00,
2013-02-17 23:05:00,23.6,12.8,30.26,NNW,346,0.0,0.0,63,0.00,,,0.00,Wunderground v.1.15,2013-02-18 04:05:00,
2013-02-17 23:10:00,23.5,13.5,30.26,NNW,346,0.0,0.0,65,0.00,,,0.00,Wunderground v.1.15,2013-02-18 04:10:00,
2013-02-17 23:15:00,23.4,13.7,30.26,NNW,346,0.0,0.0,66,0.00,,,0.00,Wunderground v.1.15,2013-02-18 04:15:00,
2013-02-17 23:20:00,23.3,13.3,30.27,NNW,346,0.0,0.0,65,0.00,,,0.00,Wunderground v.1.15,2013-02-18 04:20:00,
2013-02-17 23:25:00,23.3,14.0,30.27,NNW,346,0.0,0.0,67,0.00,,,0.00,Wunderground v.1.15,2013-02-18 04:25:00,
2013-02-17 23:30:00,23.1,13.8,30.28,NNW,346,0.0,0.0,67,0.00,,,0.00,Wunderground v.1.15,2013-02-18 04:30:00,
2013-02-17 23:35:00,23.0,13.7,30.27,NNW,346,0.0,0.0,67,0.00,,,0.00,Wunderground v.1.15,2013-02-18 04:35:00,
2013-02-17 23:40:00,23.0,13.7,30.28,NNW,346,0.0,0.0,67,0.00,,,0.00,Wunderground v.1.15,2013-02-18 04:40:00,
2013-02-17 23:45:00,22.9,13.6,30.27,NNW,346,0.0,0.0,67,0.00,,,0.00,Wunderground v.1.15,2013-02-18 04:45:00,
2013-02-17 23:50:00,22.8,14.5,30.27,NNW,346,0.0,0.0,70,0.00,,,0.00,Wunderground v.1.15,2013-02-18 04:50:00,
2013-02-17 23:55:00,22.7,13.7,30.27,NNW,346,0.0,0.0,68,0.00,,,0.00,Wunderground v.1.15,2013-02-18 04:55:00,